User: anonymous   Login
Location: Mount Graham
(32.7016°N, 109.8912°W)
Time: 14:48:34
(UTC-07:00)
Language:

Cosmos 1340 - Orbit

View from above orbital plane
View from above orbital plane
View from above satellite
View from above satellite

Ground track
Ground track

The orbit data is extracted from the following two-line orbital elements,

1 13067U 82013A   15115.17234692  .00005607  00000-0  28947-3 0  9999
2 13067 081.1874 326.6430 0002413 290.7517 208.9914 15.16162342808867
Epoch (UTC): 25 April 2015 04:08:10
Eccentricity: 0.0002413
inclination: 81.1874°
perigee height: 516 km
apogee height: 519 km
right ascension of ascending node: 326.6430°
argument of perigee: 290.7517°
revolutions per day: 15.16162342
mean anomaly at epoch: 208.9914°
orbit number at epoch: 80886

The dashed part of the orbit path shows where the satellite is in the earth's shadow,  

DLR